Temp
72 72 72 71 71 68 66 61 58 57 55 54 52 52 54 55 53 53 52 52 52 51
70 71 71 71 71 68 64 55 54 54 52 51 50 51 55 52 49 50 49 49 49 49
68 67 68 69 66 63 58 54 51 50 49 48 49 50 52 49 49 48 47 47 47 47
64 63 64 62 62 61 53 52 49 48 47 47 48 50 50 48 47 47 45 46 46 44
60 58 56 56 55 53 51 50 48 47 46 46 48 49 49 46 47 46 44 44 43 43
54 54 54 52 51 50 48 49 46 45 44 46 48 47 47 46 45 45 44 43 43 42
54 54 51 51 49 46 46 46 43 46 44 45 47 45 45 44 43 43 43 41 42 41
50 49 49 46 46 43 43 44 43 43 42 46 45 44 43 42 42 41 40 39 39 40
45 42 41 40 39 38 39 39 40 40 40 42 42 40 40 40 39 39 38 37 37 37
40 39 39 37 37 38 38 39 39 39 40 39 39 39 39 38 38 38 38 37 35 34
38 37 36 36 37 35 36 37 36 38 38 37 37 39 38 36 37 37 36 36 35 35
38 35 34 34 34 34 35 34 35 35 34 34 35 38 37 36 34 33 33 34 34 34
37 35 35 35 34 34 34 33 33 32 33 33 33 38 37 35 34 31 31 31 31 30
36 35 36 34 33 33 31 31 31 30 30 31 33 35 37 35 32 32 31 31 29 30
MSLP
1017.63 1018.11 1018.61 1019.11 1019.70 1020.25 1020.90 1021.69 1022.46 1023.05 1023.75 1024.57 1025.10 1025.74 1026.08 1026.25 1026.78 1027.18 1027.54 1027.92 1028.34 1028.70
1016.91 1017.27 1017.65 1018.40 1019.05 1019.85 1020.41 1021.35 1022.18 1023.01 1023.73 1024.42 1025.09 1025.62 1025.74 1026.36 1027.08 1027.47 1027.93 1028.25 1028.66 1029.02
1016.31 1017.03 1017.52 1018.08 1018.72 1019.59 1020.41 1021.16 1022.06 1023.03 1023.84 1024.50 1024.91 1025.56 1025.85 1026.42 1027.25 1027.65 1028.26 1028.62 1028.69 1029.16
1015.77 1016.70 1017.23 1017.78 1018.44 1019.13 1019.93 1020.79 1021.70 1022.75 1023.61 1024.35 1024.60 1024.94 1025.65 1026.39 1027.01 1027.59 1028.12 1028.66 1028.76 1028.93
1015.42 1016.26 1017.11 1017.63 1018.14 1018.85 1019.60 1020.48 1021.18 1022.29 1023.26 1024.07 1024.25 1024.69 1025.17 1025.95 1026.73 1027.24 1027.83 1028.33 1028.71 1028.95
1015.64 1016.04 1016.66 1017.37 1018.03 1018.56 1019.57 1020.16 1021.27 1021.83 1022.55 1023.32 1023.68 1024.43 1025.08 1025.75 1026.45 1027.10 1027.67 1028.14 1028.38 1028.67
1015.24 1015.83 1016.67 1017.39 1018.03 1018.75 1019.33 1020.23 1020.57 1021.44 1022.15 1022.93 1023.38 1024.32 1024.97 1025.70 1026.46 1027.19 1027.78 1028.07 1028.40 1028.69
1015.41 1015.98 1016.68 1017.61 1018.23 1018.81 1019.40 1020.23 1020.31 1021.41 1022.28 1023.02 1023.51 1024.19 1024.88 1025.68 1026.49 1027.05 1027.59 1027.88 1028.43 1028.72
1015.83 1016.45 1016.90 1017.71 1018.46 1019.15 1019.67 1020.32 1020.99 1021.85 1022.07 1023.17 1023.67 1024.36 1024.97 1025.46 1026.15 1026.81 1027.47 1027.84 1028.35 1028.94
1016.00 1016.62 1017.12 1017.87 1018.60 1019.30 1019.79 1020.42 1021.23 1021.74 1022.49 1023.36 1023.77 1024.45 1025.05 1025.71 1025.97 1026.43 1027.06 1027.65 1027.96 1028.61
1016.43 1017.06 1017.53 1017.92 1018.52 1019.30 1019.86 1020.30 1021.42 1021.67 1022.58 1023.23 1023.94 1024.19 1024.93 1025.65 1025.97 1026.60 1027.13 1027.52 1027.77 1028.15
1016.34 1017.16 1017.59 1018.20 1018.79 1019.28 1019.99 1020.73 1021.52 1021.99 1022.59 1023.15 1023.79 1024.20 1024.98 1025.69 1026.30 1026.79 1027.34 1027.63 1027.61 1028.01
1015.95 1016.68 1017.36 1018.05 1018.85 1019.50 1020.39 1020.92 1021.75 1022.48 1023.01 1023.33 1023.80 1024.29 1024.95 1025.67 1026.21 1026.74 1027.32 1027.54 1027.83 1028.00
1015.65 1016.43 1016.96 1017.86 1018.60 1019.34 1020.35 1021.19 1021.97 1022.71 1023.38 1023.78 1023.98 1024.34 1024.87 1025.52 1025.92 1026.30 1026.90 1027.17 1027.46 1027.78
Wind_Speed
20 13 13 15 11 10 10 8 9 8 8 8 7 6 6 6 6 7 6 8 5 4
17 18 15 17 13 10 10 9 10 9 9 9 8 7 9 7 8 7 6 6 6 4
15 14 14 12 14 14 11 12 12 10 9 9 9 9 9 8 8 8 5 5 6 5
12 12 12 10 12 13 12 13 13 12 11 10 11 12 10 9 10 9 8 6 7 6
10 10 10 10 11 12 13 12 14 13 12 10 11 12 12 12 10 10 10 9 7 7
8 10 12 11 10 12 13 14 12 13 13 13 13 13 11 11 11 9 9 8 7 7
12 11 9 10 11 13 13 14 14 14 12 11 13 12 11 11 10 9 8 7 6 6
7 8 9 9 11 11 12 12 12 13 10 12 11 9 12 11 10 10 9 7 6 6
8 7 8 9 9 10 9 10 12 10 12 12 7 14 14 11 10 9 8 8 7 6
8 9 10 10 10 11 12 12 11 11 11 10 8 17 16 12 8 9 9 8 7 6
8 8 9 11 12 10 8 11 10 11 11 10 8 17 17 14 9 7 7 7 6 6
10 10 10 10 10 9 10 8 9 8 10 10 9 17 17 13 7 6 6 5 5 5
11 11 12 12 11 8 8 8 7 8 7 8 10 16 17 11 5 7 5 5 4 5
10 11 11 11 8 10 10 9 8 8 6 7 7 11 16 14 6 5 6 5 4 4
Wind_Direction
211 213 214 214 201 195 182 178 160 156 148 144 139 141 149 130 122 126 132 139 140 130
211 213 211 213 207 195 169 151 152 150 149 145 140 149 147 135 133 131 132 131 134 137
206 210 213 203 190 179 163 151 149 147 148 148 142 149 141 138 142 137 136 140 149 146
198 201 203 191 178 177 157 157 151 154 150 157 154 149 148 147 149 148 145 155 161 144
181 172 171 178 171 160 162 161 154 152 153 160 162 154 155 153 160 157 163 167 163 147
175 172 179 172 164 164 157 159 152 153 161 166 162 155 156 155 158 163 168 170 162 161
184 184 174 170 166 163 160 164 153 165 162 163 156 154 153 153 153 157 162 159 161 173
177 165 159 159 165 159 163 163 149 150 147 157 156 156 154 156 158 161 161 161 169 188
163 145 152 150 153 148 146 152 145 154 143 160 153 154 153 152 157 159 163 167 178 190
160 162 157 145 143 154 159 149 157 144 146 152 143 158 158 154 154 161 172 175 176 182
160 156 151 152 158 150 150 150 158 149 151 142 152 161 162 158 153 159 170 175 179 189
167 161 156 158 155 145 148 145 154 150 146 151 157 165 163 155 152 156 165 171 173 194
165 164 167 162 159 150 153 140 140 139 146 145 148 169 169 163 156 157 165 169 184 195
165 166 164 155 148 147 140 136 142 138 141 146 153 169 174 176 166 167 171 181 182 200